Weather History for Toledo Metcalf, OH

Change the Weather History Date:

Tuesday, April 9, 2013

  Actual Average (KTOL) Record (KTOL)
Temperature  
Mean Temperature 53 °F 47 °F  
Max Temperature 64 °F 58 °F 80 °F (1967)
Min Temperature 44 °F 37 °F 15 °F (1957)
Degree Days  
Heating Degree Days 12 18  
Month to date heating degree days 177  
Since 1 July heating degree days 5603  
Cooling Degree Days 0 0  
Month to date cooling degree days 0  
Year to date cooling degree days 0  
Growing Degree Days 3 (Base 50)    
Moisture  
Dew Point 42 °F    
Average Humidity 73    
Maximum Humidity 89    
Minimum Humidity 56    
Precipitation  
Precipitation 0.00 in 0.11 in 1.21 in (1998)
Month to date precipitation 0.93  
Year to date precipitation 7.53  
Snow  
Snow 0.00 in 0.10 in - ()
Month to date snowfall 0.7  
Since 1 July snowfall 36.9  
Snow Depth -    
Sea Level Pressure  
Sea Level Pressure 29.99 in    
Wind  
Wind Speed 6 mph (NE)    
Max Wind Speed 10 mph    
Max Gust Speed -    
Visibility 9 miles    
Events      
T = Trace of Precipitation, MM = Missing Value Source: NWS Daily Summary

Daily Weather History Graph

Daily Weather History Graph

Search for Another Location

Airport:

Trip Planner

Search our weather history database for the weather conditions in past years. The results will help you decide how hot, cold, wet, or windy it might be!

Date:

Astronomy

Apr. 09, 2013 Rise Set
Actual Time 7:03 AM EDT 8:08 PM EDT
Civil Twilight 6:34 AM EDT 8:36 PM EDT
Nautical Twilight 6:01 AM EDT 9:10 PM EDT
Astronomical Twilight 5:25 AM EDT 9:46 PM EDT
Moon 6:25 AM EDT (4/9) 7:42 PM EDT (4/9)
Length of Visible Light 14h 01m
Length of Day
13h 04m
Waning Crescent, 1% of the Moon is Illuminated
Apr 9
Waning Crescent
Apr 10
New
Apr 18
First Quarter
Apr 25
Full
May 2
Last Quarter

Hourly Weather History & Observations

Time (EDT) Temp. Windchill Dew Point Humidity Pressure Visibility Wind Dir Wind Speed Gust Speed Precip Events Conditions
12:53 AM 52.0 °F - 42.1 °F 69% 30.00 in 10.0 mi WSW 5.8 mph - N/A   Clear
1:53 AM 50.0 °F - 42.1 °F 74% 30.02 in 10.0 mi WNW 4.6 mph - N/A   Mostly Cloudy
2:53 AM 50.0 °F - 41.0 °F 71% 30.04 in 10.0 mi NW 4.6 mph - N/A   Overcast
3:53 AM 48.0 °F - 41.0 °F 77% 30.04 in 10.0 mi NNE 3.5 mph - N/A   Overcast
4:53 AM 46.0 °F 44.8 °F 39.9 °F 79% 30.06 in 10.0 mi NE 3.5 mph - N/A   Mostly Cloudy
5:53 AM 45.0 °F - 41.0 °F 86% 30.08 in 9.0 mi Calm Calm - N/A   Overcast
6:53 AM 45.0 °F 42.6 °F 41.0 °F 86% 30.09 in 8.0 mi NE 4.6 mph - N/A   Partly Cloudy
7:53 AM 44.1 °F 42.5 °F 41.0 °F 89% 30.08 in 5.0 mi East 3.5 mph - N/A   Scattered Clouds
8:53 AM 48.0 °F - 43.0 °F 83% 30.09 in 7.0 mi East 8.1 mph - N/A   Scattered Clouds
9:53 AM 50.0 °F - 43.0 °F 77% 30.08 in 7.0 mi ESE 9.2 mph - N/A   Overcast
10:53 AM 55.0 °F - 44.1 °F 67% 30.05 in 9.0 mi SE 10.4 mph - N/A   Mostly Cloudy
11:53 AM 55.9 °F - 44.1 °F 64% 30.05 in 10.0 mi East 6.9 mph - N/A   Overcast
12:53 PM 53.1 °F - 43.0 °F 69% 30.02 in 8.0 mi ENE 9.2 mph - N/A   Overcast
1:53 PM 57.0 °F - 44.1 °F 62% 29.97 in 9.0 mi ENE 8.1 mph - N/A   Mostly Cloudy
2:53 PM 62.1 °F - 46.0 °F 56% 29.93 in 10.0 mi NNE 9.2 mph - N/A   Clear
3:53 PM 61.0 °F - 45.0 °F 56% 29.89 in 9.0 mi NNE 10.4 mph - N/A   Partly Cloudy
4:53 PM 57.9 °F - 44.1 °F 60% 29.88 in 10.0 mi ENE 8.1 mph - N/A   Scattered Clouds
5:53 PM 55.0 °F - 43.0 °F 64% 29.87 in 10.0 mi NNE 8.1 mph - N/A   Partly Cloudy
6:53 PM 50.0 °F - 41.0 °F 71% 29.89 in 10.0 mi NNE 9.2 mph - N/A   Scattered Clouds
7:53 PM 46.0 °F 44.8 °F 39.9 °F 79% 29.91 in 10.0 mi East 3.5 mph - N/A   Overcast
8:53 PM 48.0 °F - 41.0 °F 77% 29.92 in 10.0 mi East 4.6 mph - N/A   Scattered Clouds
9:53 PM 48.9 °F - 42.1 °F 77% 29.93 in 10.0 mi ENE 4.6 mph - N/A   Overcast
10:53 PM 48.0 °F - 41.0 °F 77% 29.95 in 10.0 mi NE 6.9 mph - 0.00 in   Overcast
11:53 PM 48.0 °F - 44.1 °F 86% 29.97 in 8.0 mi NE 9.2 mph - N/A   Overcast